📊 Raw Sensor Data
Showing records 37026 to 37050 of 84,907 total
| ID | Distance (ft) | Battery V | Battery A | Int Temp (°F) | Int Humid (%) | Ext Temp (°F) | Solar V | RSSI | SNR | Time Stamp |
|---|---|---|---|---|---|---|---|---|---|---|
| 47894 | 15.6 | 3.94 | 5 | 107 | 50 | 97 | 5.10 | -69 | 8 | 07/31/2025 06:15 PM |
| 47893 | 15.6 | 3.93 | 0 | 107 | 50 | 98 | 5.10 | -69 | 8 | 07/31/2025 06:00 PM |
| 47892 | 15.6 | 4.08 | 5 | 108 | 49 | 98 | 5.10 | -68 | 8 | 07/31/2025 05:45 PM |
| 47891 | 15.6 | 3.93 | 5 | 109 | 48 | 99 | 5.10 | -69 | 8 | 07/31/2025 05:30 PM |
| 47890 | 15.7 | 3.98 | 5 | 110 | 47 | 99 | 5.10 | -69 | 8 | 07/31/2025 05:15 PM |
| 47889 | 15.6 | 3.93 | 5 | 110 | 46 | 98 | 5.10 | -68 | 8 | 07/31/2025 05:00 PM |
| 47888 | 15.6 | 3.93 | 5 | 109 | 46 | 98 | 5.10 | -69 | 8 | 07/31/2025 04:45 PM |
| 47887 | 15.6 | 4.11 | 0 | 109 | 45 | 99 | 5.10 | -68 | 7 | 07/31/2025 04:30 PM |
| 47886 | 15.6 | 3.93 | 5 | 108 | 44 | 98 | 5.10 | -68 | 7 | 07/31/2025 04:15 PM |
| 47885 | 15.6 | 3.93 | 5 | 108 | 43 | 95 | 5.10 | -69 | 8 | 07/31/2025 04:00 PM |
| 47884 | 15.6 | 3.93 | 0 | 106 | 43 | 93 | 5.10 | -69 | 8 | 07/31/2025 03:45 PM |
| 47883 | 15.6 | 3.93 | 5 | 106 | 43 | 92 | 5.10 | -69 | 8 | 07/31/2025 03:30 PM |
| 47882 | 15.6 | 3.93 | 0 | 106 | 42 | 96 | 5.10 | -69 | 8 | 07/31/2025 03:15 PM |
| 47881 | 15.6 | 3.93 | 5 | 105 | 41 | 92 | 5.10 | -68 | 7 | 07/31/2025 03:00 PM |
| 47880 | 15.6 | 3.93 | 5 | 103 | 41 | 94 | 5.10 | -71 | 8 | 07/31/2025 02:45 PM |
| 47879 | 15.5 | 3.93 | 0 | 101 | 41 | 93 | 5.10 | -69 | 8 | 07/31/2025 02:30 PM |
| 47878 | 15.6 | 4.11 | 0 | 99 | 41 | 89 | 5.20 | -70 | 7 | 07/31/2025 02:15 PM |
| 47877 | 15.5 | 4.02 | 5 | 97 | 41 | 88 | 5.10 | -68 | 7 | 07/31/2025 02:00 PM |
| 47876 | 15.5 | 3.93 | 0 | 94 | 42 | 86 | 5.10 | -70 | 8 | 07/31/2025 01:45 PM |
| 47875 | 15.6 | 3.93 | 5 | 93 | 42 | 84 | 5.10 | -70 | 7 | 07/31/2025 01:30 PM |
| 47874 | 15.5 | 3.93 | 5 | 89 | 43 | 83 | 5.10 | -68 | 7 | 07/31/2025 01:00 PM |
| 47873 | 15.6 | 4.11 | 5 | 89 | 42 | 81 | 5.10 | -68 | 7 | 07/31/2025 12:45 PM |
| 47872 | 15.7 | 3.93 | 0 | 87 | 43 | 85 | 5.10 | -69 | 8 | 07/31/2025 12:30 PM |
| 47871 | 15.5 | 3.93 | 5 | 86 | 43 | 85 | 5.10 | -69 | 8 | 07/31/2025 12:15 PM |
| 47870 | 15.6 | 3.93 | 5 | 85 | 43 | 82 | 5.10 | -68 | 8 | 07/31/2025 12:00 PM |